Tracking 30923 objects as of 1-Jul-2025
HD Live streaming from Space Station
objects crossing your sky now

USA 415

Track USA 415 now!
10-day predictions


NORAD ID: 61036
Int'l Code: 2024-160R
Perigee: 582.8 km
Apogee: 585.6 km
Inclination: 70.0 °
Period: 96.2 minutes
Semi major axis: 6955 km
RCS: Unknown
Launch date: September 6, 2024
Source: United States (US)
Launch site: AIR FORCE WESTERN TEST RANGE (AFWTR)
Your satellite tracking list
Your tracking list is empty




NASA's NSSDC Master Catalog

Two Line Element Set (TLE):
1 61036U 24160R   25165.90526414 0.00000000  00000-0  00000-0 0    02
2 61036  69.9880 200.0799 0002000 325.6384  34.3615 14.96714408    04
Source of the keplerian elements: McCants